Weather History for 03772 - March, 2014

Change the Weather History Date:

Monday, March 17, 2014

  Actual Average Record
Temperature  
Mean Temperature 49 °F -  
Max Temperature 57 °F 53 °F - ()
Min Temperature 41 °F 40 °F - ()
Degree Days  
Heating Degree Days 16    
Moisture  
Dew Point 42 °F    
Average Humidity 74    
Maximum Humidity 93    
Minimum Humidity 47    
Precipitation  
Precipitation 0.00 in - - ()
Sea Level Pressure  
Sea Level Pressure 30.16 in    
Wind  
Wind Speed 8 mph ()    
Max Wind Speed 13 mph    
Max Gust Speed -    
Visibility 7.9 miles    
Events      
T = Trace of Precipitation, MM = Missing Value Source: Averaged Metar Reports

Daily Weather History Graph

Daily Weather History Graph

Search for Another Location

Airport or City:

Trip Planner

Search our weather history database for the weather conditions in past years. The results will help you decide how hot, cold, wet, or windy it might be!

Date:

Astronomy

Mar. 17, 2014 Rise Set
Actual Time 6:11 AM GMT 6:09 PM GMT
Civil Twilight 5:38 AM GMT 6:42 PM GMT
Nautical Twilight 4:59 AM GMT 7:22 PM GMT
Astronomical Twilight 4:19 AM GMT 8:02 PM GMT
Moon 7:22 PM GMT (3/17) 6:12 AM GMT (3/17)
Length of Visible Light 13h 04m
Length of Day
11h 57m
Waxing Gibbous, 99% of the Moon is Illuminated
Mar 17
Waxing Gibbous
Mar 24
Last Quarter
Mar 30
New
Apr 7
First Quarter
Apr 15
Full

Hourly Weather History & Observations

Time (GMT) Temp. Windchill Dew Point Humidity Pressure Visibility Wind Dir Wind Speed Gust Speed Precip Events Conditions
12:00 AM 48 °F - 43 °F 78% 30.23 in 6 mi West 9.2 mph - -  
12:20 AM 46.4 °F 41.5 °F 42.8 °F 87% 30.21 in 3.1 mi West 10.4 mph - N/A   Haze
12:50 AM 44.6 °F 39.7 °F 42.8 °F 93% 30.21 in 2.8 mi West 9.2 mph - N/A   Haze
1:00 AM 46 °F - 43 °F 84% 30.23 in 4 mi West 8.1 mph - -   Light Haze
1:20 AM 44.6 °F 40.2 °F 42.8 °F 93% 30.21 in - West 8.1 mph - N/A   Haze
1:50 AM 44.6 °F 40.2 °F 42.8 °F 93% 30.21 in - West 8.1 mph - N/A   Haze
2:00 AM 44 °F - 41 °F 87% 30.22 in 3 mi West 8.1 mph - -   Light Haze
2:20 AM 44.6 °F 40.2 °F 42.8 °F 93% 30.21 in - West 8.1 mph - N/A   Haze
2:50 AM 44.6 °F 40.7 °F 42.8 °F 93% 30.18 in 3.1 mi West 6.9 mph - N/A   Haze
3:00 AM 44 °F - 42 °F 90% 30.20 in 4 mi West 5.8 mph - -   Light Haze
3:50 AM 42.8 °F 38.6 °F 41.0 °F 93% 30.18 in 5.6 mi West 6.9 mph - N/A   Unknown
4:20 AM 42.8 °F 38.6 °F 41.0 °F 93% 30.18 in 5.6 mi West 6.9 mph - N/A   Unknown
4:50 AM 44.6 °F 41.4 °F 42.8 °F 93% 30.18 in - WSW 5.8 mph - N/A   Clear
5:00 AM 43 °F - 40 °F 87% 30.20 in 7 mi West 4.6 mph - -  
5:20 AM 42.8 °F 39.3 °F 41.0 °F 93% 30.18 in 5.6 mi WSW 5.8 mph - N/A   Unknown
5:50 AM 42.8 °F 39.3 °F 41.0 °F 93% 30.18 in 5.6 mi SSW 5.8 mph - N/A   Unknown
6:00 AM 44 °F - 42 °F 91% 30.21 in 9 mi SSW 5.8 mph - -  
6:20 AM 42.8 °F 38.6 °F 41.0 °F 93% 30.21 in 5.6 mi WSW 6.9 mph - N/A   Unknown
6:50 AM 42.8 °F 38.6 °F 41.0 °F 93% 30.21 in 5.6 mi West 6.9 mph - N/A   Unknown
7:00 AM 44 °F - 42 °F 90% 30.21 in 12 mi West 5.8 mph - -  
7:20 AM 46.4 °F 42.9 °F 42.8 °F 87% 30.21 in - West 6.9 mph - N/A   Clear
7:50 AM 48.2 °F - 44.6 °F 87% 30.21 in - West 8.1 mph - N/A   Clear
8:00 AM 47 °F - 43 °F 81% 30.22 in 14 mi West 6.9 mph - -  
8:20 AM 48.2 °F - 44.6 °F 87% 30.21 in 6.2 mi West 8.1 mph - N/A   Partly Cloudy
8:50 AM 51.8 °F - 44.6 °F 76% 30.21 in 6.2 mi WNW 11.5 mph - N/A   Scattered Clouds
9:00 AM 52 °F - 43 °F 63% 30.22 in 19 mi West 10.4 mph - -  
9:20 AM 51.8 °F - 44.6 °F 76% 30.21 in 6.2 mi WNW 10.4 mph - N/A   Scattered Clouds
9:50 AM 51.8 °F - 44.6 °F 76% 30.21 in 6.2 mi West 12.7 mph - N/A   Scattered Clouds
10:00 AM 52 °F - 43 °F 63% 30.22 in 19 mi West 10.4 mph - -   Mostly Cloudy
10:20 AM 51.8 °F - 42.8 °F 71% 30.21 in 6.2 mi West 11.5 mph - N/A   Scattered Clouds
10:50 AM 53.6 °F - 41.0 °F 62% 30.21 in 6.2 mi West 12.7 mph - N/A   Mostly Cloudy
11:00 AM 53 °F - 40 °F 51% 30.21 in 31 mi West 11.5 mph - -   Mostly Cloudy
11:20 AM 53.6 °F - 41.0 °F 62% 30.21 in 6.2 mi West 11.5 mph - N/A   Mostly Cloudy
11:50 AM 53.6 °F - 41.0 °F 62% 30.18 in 6.2 mi WSW 10.4 mph - N/A   Mostly Cloudy
12:00 PM 54 °F - 39 °F 47% 30.20 in 25 mi WSW 10.4 mph - -   Mostly Cloudy
12:20 PM 55.4 °F - 41.0 °F 58% 30.18 in 6.2 mi West 8.1 mph - N/A   Mostly Cloudy
12:50 PM 55.4 °F - 42.8 °F 63% 30.18 in 6.2 mi WNW 8.1 mph - N/A   Mostly Cloudy
1:00 PM 54 °F - 40 °F 49% 30.17 in 22 mi West 8.1 mph - -   Mostly Cloudy
1:20 PM 55.4 °F - 42.8 °F 63% 30.15 in 6.2 mi West 9.2 mph - N/A   Mostly Cloudy
1:50 PM 55.4 °F - 42.8 °F 63% 30.15 in 6.2 mi West 8.1 mph - N/A   Scattered Clouds
2:00 PM 55 °F - 42 °F 52% 30.16 in 19 mi West 6.9 mph - -   Partly Cloudy
2:20 PM 55.4 °F - 42.8 °F 63% 30.15 in 6.2 mi WSW 8.1 mph - N/A   Partly Cloudy
2:50 PM 55.4 °F - 42.8 °F 63% 30.12 in 6.2 mi WSW 9.2 mph - N/A   Partly Cloudy
3:00 PM 56 °F - 43 °F 51% 30.14 in 25 mi WSW 8.1 mph - -   Scattered Clouds
3:20 PM 55.4 °F - 42.8 °F 63% 30.12 in 6.2 mi West 8.1 mph - N/A   Partly Cloudy
3:50 PM 55.4 °F - 42.8 °F 63% 30.12 in - West 9.2 mph - N/A   Clear
4:00 PM 55 °F - 42 °F 50% 30.13 in 19 mi West 8.1 mph - -   Scattered Clouds
4:20 PM 55.4 °F - 42.8 °F 63% 30.09 in - West 9.2 mph - N/A   Clear
4:50 PM 55.4 °F - 42.8 °F 63% 30.09 in - West 9.2 mph - N/A   Clear
5:00 PM 55 °F - 43 °F 53% 30.12 in 16 mi West 10.4 mph - -   Scattered Clouds
5:20 PM 55.4 °F - 42.8 °F 63% 30.12 in - WSW 11.5 mph - N/A   Clear
5:50 PM 53.6 °F - 42.8 °F 67% 30.12 in 6.2 mi WSW 12.7 mph - N/A   Partly Cloudy
6:00 PM 53 °F - 42 °F 56% 30.12 in 9 mi WSW 12.7 mph - -   Scattered Clouds
6:20 PM 53.6 °F - 42.8 °F 67% 30.12 in 5.6 mi West 10.4 mph - N/A   Partly Cloudy
6:50 PM 51.8 °F - 42.8 °F 71% 30.12 in 5.6 mi WSW 10.4 mph - N/A   Partly Cloudy
7:00 PM 51 °F - 42 °F 62% 30.13 in 7 mi WSW 10.4 mph - -   Scattered Clouds
7:20 PM 51.8 °F - 42.8 °F 71% 30.12 in - WSW 9.2 mph - N/A   Clear
7:50 PM 51.8 °F - 42.8 °F 71% 30.12 in 6.2 mi WSW 10.4 mph - N/A   Unknown
8:00 PM 51 °F - 42 °F 61% 30.12 in 12 mi WSW 10.4 mph - -   Mostly Cloudy
8:20 PM 51.8 °F - 42.8 °F 71% 30.09 in - WSW 9.2 mph - N/A   Clear
8:50 PM 50.0 °F - 42.8 °F 76% 30.09 in - WSW 9.2 mph - N/A   Clear
9:00 PM 50 °F - 41 °F 63% 30.12 in 13 mi SW 9.2 mph - -   Scattered Clouds
9:20 PM 50.0 °F - 42.8 °F 76% 30.09 in - WSW 10.4 mph - N/A   Clear
9:50 PM 48.2 °F - 42.8 °F 82% 30.09 in - WSW 9.2 mph - N/A   Clear
10:00 PM 48 °F - 41 °F 68% 30.11 in 11 mi WSW 8.1 mph - -   Scattered Clouds
10:20 PM 48.2 °F - 41.0 °F 76% 30.09 in - WSW 10.4 mph - N/A   Clear
10:50 PM 46.4 °F 40.7 °F 41.0 °F 81% 30.09 in 6.2 mi West 12.7 mph - N/A   Scattered Clouds
11:00 PM 47 °F - 40 °F 69% 30.12 in 12 mi West 12.7 mph - -   Partly Cloudy
11:20 PM 46.4 °F 41.5 °F 41.0 °F 81% 30.09 in 6.2 mi West 10.4 mph - N/A   Mostly Cloudy
11:50 PM 46.4 °F 41.9 °F 41.0 °F 81% 30.09 in 6.2 mi West 9.2 mph - N/A   Partly Cloudy